Location: Fort Wayne
(41.1310°N, 85.1290°W)
Time: 00:37:43
(UTC-04:00)

Cosmos 1000 Rocket - Visible Passes

Search period start: 07 May 2015 00:00
Search period end: 17 May 2015 00:00
Orbit: 954 x 992 km, 82.9° (Epoch: 06 May)

Date Brightness Start Highest point End Pass type
(mag) Time Alt. Az. Time Alt. Az. Time Alt. Az.
07 May 6.6 02:21:16 10° NNE 02:25:18 18° ENE 02:29:05 11° ESE visible
07 May 4.4 04:05:11 10° NNW 04:11:22 68° W 04:13:41 39° SSW visible
08 May 5.9 02:45:02 10° NNE 02:50:30 32° ENE 02:53:18 23° ESE visible
08 May 5.1 04:30:16 10° NNW 04:35:56 37° W 04:37:53 30° SW visible
09 May 4.9 03:09:21 10° N 03:15:28 57° ENE 03:17:32 39° SE visible
09 May 5.8 04:55:50 10° NW 05:00:22 21° W 05:02:08 18° WSW visible
10 May 6.7 01:50:41 10° NNE 01:53:57 15° ENE 01:57:13 11° E visible
10 May 4.3 03:34:01 10° N 03:40:14 82° W 03:41:49 53° S visible
10 May 6.3 05:23:12 10° WNW 05:24:41 11° W 05:25:42 10° W visible
11 May 6.0 02:14:09 10° NNE 02:19:13 27° ENE 02:21:31 22° ESE visible
11 May 4.8 03:58:58 10° NNW 04:04:51 45° W 04:06:07 40° WSW visible
12 May 5.2 02:38:19 10° N 02:44:16 47° ENE 02:45:50 39° ESE visible
12 May 5.5 04:24:20 10° NNW 04:29:19 25° W 04:30:26 24° WSW visible
13 May 6.8 01:20:25 10° NE 01:22:33 12° ENE 01:25:05 10° E visible
13 May 4.4 03:02:51 10° N 03:09:05 83° E 03:10:11 62° SSE visible
13 May 6.2 04:50:40 10° NW 04:53:41 14° W 04:54:47 13° W visible
14 May 6.2 01:43:19 10° NNE 01:47:55 22° ENE 01:49:57 19° E visible
14 May 4.5 03:27:42 10° NNW 03:33:45 55° W 03:34:33 51° WSW visible
15 May 5.4 02:07:19 10° N 02:13:01 39° ENE 02:14:20 35° ESE visible
15 May 5.3 03:52:55 10° NNW 03:58:16 31° W 03:58:56 30° W visible
16 May 4.5 02:31:45 10° N 02:37:55 69° E 02:38:45 62° SE visible
16 May 6.0 04:18:47 10° NW 04:22:39 17° W 04:23:21 16° W visible
